Location: *
(2.5500°S, 65.9667°W)
Time: 06:22:32
(UTC+00:00)

Explorer 7 - Pass Details

Date: 21 April 2024
Orbit: 467 x 625 km, 50.3° (Epoch: 26 May)

Event Time Altitude Azimuth Distance (km) Brightness Sun altitude
Rises 01:00:42 0° 299° (WNW) 2,651 11.2 -39.1°
Enters shadow 01:02:22 - 291° (WNW) 2,055 10.5 -39.5°
Reaches altitude 10° 01:03:22 10° 283° (WNW) 1,732 - -39.8°
Maximum altitude 01:06:20 21° 233° (SW) 1,180 - -40.5°
Drops below altitude 10° 01:09:13 10° 183° (S) 1,675 - -41.2°
Sets 01:11:45 0° 166° (SSE) 2,535 - -41.8°
